User: anonymous   Login
Location: Unspecified
(31.0491°N, 0.0000°E)
Time: 08:30:24
(UTC+00:00)
Language:

Cosmos 2228 Rocket - Orbit

View from above orbital plane
View from above orbital plane
View from above satellite
View from above satellite

Ground track
Ground track

The orbit is defined by the following mean orbital elements,

1 22287U          26088.16631332 +.00000000 +00000-0 +51099-4 0 00001
2 22287  82.5257 334.7313 0022265 272.9119  86.9547 14.80067221    04
Epoch (UTC): 29 March 2026 03:59:29
Eccentricity: 0.0022265
inclination: 82.5257°
perigee height: 614 km
apogee height: 645 km
right ascension of ascending node: 334.7313°
argument of perigee: 272.9119°
revolutions per day: 14.80067221
mean anomaly at epoch: 86.9547°

The dashed part of the orbit path shows where the satellite is in the earth's shadow,  

DLR